Location: Estes Par
(40.3770°N, 105.5210°W)
Time: 16:02:40
(UTC-06:00)

OTV 5 (USA 277) - Pass Details

Date: 14 October 2017
Orbit: 404 x 417 km, 43.0° (Epoch: 07 September)

Event Time Altitude Azimuth Distance (km) Brightness Sun altitude
Rises 20:41:50 0° 282° (WNW) 2,349 ? -27.1°
Reaches altitude 10° 20:43:58 10° 287° (WNW) 1,486 ? -27.5°
Enters shadow 20:45:15 21° 294° (WNW) 995 ? -27.7°
